This demonstration page uses our WeatherBlox Daily Observations layout. Learn more.

Left ArrowRight Arrow

Hourly Observations for February 21, 2016

Temp ( °F °C ) Dew Point ( °F °C ) Humidity (%) Winds ( mph kmh ) Pressure ( in mb ) Visibility ( mi km ) Precip ( " mm )
12:59 am 00:59 Clear 57 13.9 49 9.4 74 74 WSW 12 19 30.03 1017 8 13 0.00 0.00
1:59 am 01:59 Clear 56 13.3 49 9.4 77 77 WSW 13 20 30.02 1017 8 13 0.00 0.00
2:59 am 02:59 Clear 55 12.8 48 8.9 77 77 WSW 9 15 30.01 1016 8 13 0.00 0.00
3:59 am 03:59 Mostly Clear 54 12.2 48 8.9 80 80 WSW 7 11 30.01 1016 7 11 0.00 0.00
4:59 am 04:59 Mostly Clear 53 11.7 48 8.9 83 83 WSW 9 15 30.02 1017 7 11 0.00 0.00
5:59 am 05:59 Mostly Clear 51 10.6 47 8.3 86 86 SW 7 11 30.01 1016 7 11 0.00 0.00
6:59 am 06:59 Partly Cloudy with Mist and Fog 50 10 47 8.3 89 89 SW 7 11 30.02 1017 5 8 0.00 0.00
7:59 am 07:59 Mostly Cloudy with Mist and Fog 53 11.7 48 8.9 83 83 SW 7 11 30.02 1017 6 10 0.00 0.00
8:59 am 08:59 Mostly Cloudy with Haze 55 12.8 49 9.4 80 80 WSW 8 13 30.01 1016 6 10 0.00 0.00
9:59 am 09:59 Partly Cloudy 61 16.1 50 10 67 67 WSW 8 13 29.99 1016 8 13 0.00 0.00
10:59 am 10:59 Mostly Cloudy 66 18.9 51 10.6 59 59 SW 7 11 29.98 1015 9 14 0.00 0.00
11:59 am 11:59 Mostly Cloudy 67 19.4 50 10 55 55 SW 6 9 29.96 1015 9 14 0.00 0.00
12:59 pm 12:59 Mostly Cloudy 68 20 51 10.6 55 55 W 6 9 29.93 1014 9 14 0.00 0.00
1:59 pm 13:59 Mostly Cloudy 70 21.1 51 10.6 51 51 SSW 8 13 29.89 1012 10 16 0.00 0.00
2:59 pm 14:59 Mostly Cloudy 71 21.7 49 9.4 46 46 SW 9 15 29.88 1012 10 16 0.00 0.00
3:59 pm 15:59 Cloudy 70 21.1 51 10.6 51 51 SSW 12 19 29.87 1011 10 16 0.00 0.00
4:59 pm 16:59 Cloudy 68 20 52 11.1 57 57 SW 8 13 29.87 1012 10 16 0.00 0.00
5:59 pm 17:59 Cloudy 61 16.1 55 12.8 81 81 NNW 7 11 29.88 1012 9 14 0.00 0.03
6:59 pm 18:59 Mostly Cloudy 54 12.2 50 10 87 87 NNE 6 9 29.89 1012 7 11 0.00 0.00
7:59 pm 19:59 Cloudy 54 12.2 48 8.9 80 80 ESE 5 7 29.88 1012 7 11 0.00 0.00
8:59 pm 20:59 Cloudy 56 13.3 49 9.4 77 77 Calm 29.88 1012 7 11 0.00 0.00
9:59 pm 21:59 Cloudy 56 13.3 51 10.6 84 84 S 3 6 29.87 1012 7 11 0.00 0.03
10:59 pm 22:59 Cloudy 62 16.7 55 12.8 78 78 WSW 8 13 29.87 1012 9 14 0.00 0.00
11:59 pm 23:59 Cloudy with Mist and Fog 58 14.4 54 12.2 87 87 W 7 11 29.88 1012 6 10 0.00 0.00

Powered by AerisWeather